Flag for Greenland Weather past 2 weeks in Ilulissat, Greenland

Now
5 °F

Broken clouds.


Feels Like: -8 °F
Forecast: N/A
Wind: 8 mph from East

Location: Jacobshavn Lufthavn

Current Time: Mar 27, 2015 at 8:04:46 PM

Latest Report: Mar 27, 2015 at 6:50 PM


Visibility: N/A

Pressure: 29.45 "Hg

Humidity: 66%

Dew point: -4 °F

Location of IlulissatLocation

Historic Weather in Ilulissat — Graph

°F

Ilulissat temperature yesterday

Maximum temperature yesterday: 10 °F (at 12:50 AM)
Minimum temperature yesterday: 3 °F (at 6:50 AM)
Average temperature yesterday: 7 °F

Past Weeks' High & Low Weather Summary

 TemperatureHumidityPressure
High36 °F (Mar 19, 3:50 PM)93% (Mar 21, 3:50 AM)30.12 "Hg (Mar 21, 3:50 AM)
Low-18 °F (Mar 13, 12:50 AM)31% (Mar 18, 1:50 PM)28.85 "Hg (Mar 13, 9:50 PM)
Average13 °F66%29.58 "Hg
* Reported Mar 12 6:50 PM — Mar 27 6:50 PM, Ilulissat, Weather by CustomWeather, © 2015

Note: Actual official high and low records may vary slightly from our data, if they occured in-between our weather recording intervals... More about our weather records

Advertising

Ilulissat weather history for previous 24 hours

 ConditionsComfort  
Time TempWeatherWind HumidityBarometerVisibility
6:50 PM
Fri, Mar 27
5 °FBroken clouds.8 mph66%29.45 "HgN/A
5:50 PM7 °FPartly sunny.9 mph61%29.45 "HgN/A
4:50 PM7 °FScattered clouds.10 mph56%29.45 "HgN/A
3:50 PM7 °FScattered clouds.12 mph56%29.47 "HgN/A
2:50 PM5 °FScattered clouds.13 mph55%29.47 "HgN/A
1:50 PM7 °FScattered clouds.13 mph56%29.47 "HgN/A
12:50 PM5 °FScattered clouds.17 mph55%29.47 "HgN/A
11:50 AM3 °FScattered clouds.17 mph66%29.47 "HgN/A
10:50 AM3 °FPartly sunny.20 mph66%29.47 "HgN/A
9:50 AM1 °FPartly sunny.24 mph71%29.47 "HgN/A
8:50 AM1 °FBroken clouds.22 mph65%29.45 "HgN/A
7:50 AM3 °FBroken clouds.22 mph66%29.45 "HgN/A
6:50 AM1 °FPartly sunny.20 mph71%29.45 "HgN/A
5:50 AM1 °FPassing clouds.22 mph71%29.45 "HgN/A
4:50 AM3 °FPassing clouds.22 mph66%29.45 "HgN/A
3:50 AM3 °FPassing clouds.24 mph72%29.42 "HgN/A
2:50 AM3 °FSnow flurries. Ice fog.21 mph72%29.42 "Hg1 mi
1:50 AM3 °FSnow flurries. Partly cloudy.22 mph78%29.42 "Hg1 mi
12:50 AM3 °FSnow flurries. Partly cloudy.18 mph78%29.42 "Hg1 mi
11:50 PM
Thu, Mar 26
7 °FOvercast.15 mph66%29.42 "Hg4 mi
10:50 PM7 °FOvercast.13 mph66%29.42 "HgN/A
9:50 PM7 °FPartly cloudy.13 mph56%29.42 "HgN/A
8:50 PM7 °FPassing clouds.12 mph56%29.42 "HgN/A
Weather by CustomWeather, © 2015

See weather overviewHow to use our weather pages